DATA,temperatura,umidade
1-Jan-97,18.4,78.58
2-Jan-97,17.4,77.63
3-Jan-97,17.1,78.56
4-Jan-97,16.6,85.52
5-Jan-97,15.8,83.36
6-Jan-97,18.5,83.6
7-Jan-97,17.3,79.85
8-Jan-97,18.7,80.14
9-Jan-97,19.6,80.9
10-Jan-97,19.1,87.69
11-Jan-97,18.9,86.85
12-Jan-97,19.6,86
13-Jan-97,19.5,83.76
14-Jan-97,19.7,89.09
15-Jan-97,20.8,88.92
16-Jan-97,19.5,93.4
17-Jan-97,18.5,84.54
18-Jan-97,18.6,78.9
19-Jan-97,17.8,77.38
20-Jan-97,19.5,82.29
21-Jan-97,19.4,87.36
22-Jan-97,19.7,83.46
23-Jan-97,19.4,86.51
24-Jan-97,18.9,85.95
25-Jan-97,18.9,86.38
26-Jan-97,19,92.48
27-Jan-97,18.6,94.45
28-Jan-97,18.8,87.75
29-Jan-97,19.6,81.21
30-Jan-97,19.5,77.47
31-Jan-97,19.5,76.79
1-Feb-97,20,71.88
2-Feb-97,19.4,80.4
3-Feb-97,18.9,80.98
4-Feb-97,18.2,78.05
5-Feb-97,19,74.75
6-Feb-97,17.3,79.38
7-Feb-97,18.7,80.65
8-Feb-97,18.1,77.52
9-Feb-97,18.5,79.02
10-Feb-97,17.1,81.86
11-Feb-97,17.4,79.74
12-Feb-97,18,85.22
13-Feb-97,17,81.98
14-Feb-97,18.1,78.24
15-Feb-97,19,86.21
16-Feb-97,18.6,89.86
17-Feb-97,17.2,82.98
18-Feb-97,19.2,83.43
19-Feb-97,18.3,71.75
20-Feb-97,21.1,70.63
21-Feb-97,19.1,87.81
22-Feb-97,20.1,81.47
23-Feb-97,19,85.07
24-Feb-97,19.3,86.91
25-Feb-97,19,83.89
26-Feb-97,17.3,79.88
27-Feb-97,18.4,80.9
28-Feb-97,17.3,85.37
1-Mar-97,17.1,80.27
2-Mar-97,15.4,80.61
3-Mar-97,17.4,85.91
4-Mar-97,16.1,84.09
5-Mar-97,18.2,85.37
6-Mar-97,18.2,83.63
7-Mar-97,18.9,79.66
8-Mar-97,18,81.97
9-Mar-97,19.3,82.3
10-Mar-97,17.8,80.65
11-Mar-97,18.8,80.66
12-Mar-97,18.3,71.64
13-Mar-97,18.4,77.24
14-Mar-97,18.4,83.28
15-Mar-97,18.3,89.95
16-Mar-97,17.5,88.57
17-Mar-97,16.8,82.27
18-Mar-97,15.6,83.4
19-Mar-97,16,78.75
20-Mar-97,17.3,81.99
21-Mar-97,16.9,80.96
22-Mar-97,14,80.24
23-Mar-97,14.4,83.51
24-Mar-97,15.6,81.12
25-Mar-97,16.9,79.88
26-Mar-97,17.2,80.21
27-Mar-97,16.1,76.59
28-Mar-97,13.6,77.97
29-Mar-97,14.6,74.61
30-Mar-97,13,81.62
31-Mar-97,16.3,86.79
1-Apr-97,17.6,86.16
2-Apr-97,18,79.6
3-Apr-97,18.1,74.37
4-Apr-97,17.6,70.21
5-Apr-97,14.8,83.69
6-Apr-97,14.9,83.39
7-Apr-97,14.4,84.05
8-Apr-97,14.2,84.47
9-Apr-97,15,81.89
10-Apr-97,11.8,79.26
11-Apr-97,12.2,79.87
12-Apr-97,14.3,78.17
13-Apr-97,13.2,74.79
14-Apr-97,14.4,75.47
15-Apr-97,13.3,79.23
16-Apr-97,14.4,82.87
17-Apr-97,17.6,84.63
18-Apr-97,17,81.83
19-Apr-97,16,75.35
20-Apr-97,16.2,84.37
21-Apr-97,16.3,89.58
22-Apr-97,16.4,83.62
23-Apr-97,15.2,84.07
24-Apr-97,15.7,81.49
25-Apr-97,14.3,71.58
26-Apr-97,14.6,82.96
27-Apr-97,13.3,85.66
28-Apr-97,15.8,64.43
29-Apr-97,11.8,63.88
30-Apr-97,14.3,75.06
1-May-97,14.4,74.41
2-May-97,14.4,71.72
3-May-97,14.4,78.2
4-May-97,16.8,85.5
5-May-97,15.4,82.1
6-May-97,13.8,83.85
7-May-97,11.2,82.51
8-May-97,14.6,81.12
9-May-97,13.3,84.9
10-May-97,14.8,82.27
11-May-97,14,82.7
12-May-97,13.7,79.16
13-May-97,12.6,83.28
14-May-97,13,83.53
15-May-97,12.6,78.72
16-May-97,12.3,82.12
17-May-97,13.1,82.21
18-May-97,13,80.18
19-May-97,13.5,77.14
20-May-97,12.8,72.47
21-May-97,13.3,66.43
22-May-97,15,76.07
23-May-97,11.8,84.41
24-May-97,13.8,91.48
25-May-97,11.2,93.66
26-May-97,10.6,88.38
27-May-97,11.4,82.93
28-May-97,12.3,92.75
29-May-97,11,83.53
30-May-97,10.6,93.76
31-May-97,10.8,89.74
1-Jun-97,8.6,87.93
2-Jun-97,6.5,85.07
3-Jun-97,8.2,88.29
4-Jun-97,12.4,89.33
5-Jun-97,14.4,94.8
6-Jun-97,14.1,83.59
7-Jun-97,11.5,67.23
8-Jun-97,5.6,60.36
9-Jun-97,7.2,75.11
10-Jun-97,9.5,83.02
11-Jun-97,7.9,71.93
12-Jun-97,14.5,79.89
13-Jun-97,11.6,78.99
14-Jun-97,14.4,88.19
15-Jun-97,14.5,89.59
16-Jun-97,12,68.11
17-Jun-97,10.9,73.99
18-Jun-97,10.2,86.45
19-Jun-97,13.2,77.2
20-Jun-97,12.4,95.31
21-Jun-97,13.1,79.76
22-Jun-97,14.6,74.54
23-Jun-97,13.8,70.38
24-Jun-97,14.7,69.92
25-Jun-97,12.7,72
26-Jun-97,14.7,64.8
27-Jun-97,13.3,80.02
28-Jun-97,12.6,94.88
29-Jun-97,13.5,95.11
30-Jun-97,12.1,95.5
1-Jul-97,11.8,95.48
2-Jul-97,13,77.92
3-Jul-97,15.4,66.34
4-Jul-97,14.6,71.08
5-Jul-97,12,86.3
6-Jul-97,13.2,78.48
7-Jul-97,14.9,83.21
8-Jul-97,14.8,80.78
9-Jul-97,13.2,77.51
10-Jul-97,12.2,74.37
11-Jul-97,11.5,75.01
12-Jul-97,12.8,88.97
13-Jul-97,13.9,75.05
14-Jul-97,12,71.21
15-Jul-97,10.4,73.24
16-Jul-97,11.8,72.28
17-Jul-97,13.4,86.92
18-Jul-97,12.6,91.51
19-Jul-97,14.8,72.66
20-Jul-97,12.6,80.08
21-Jul-97,12.8,90.29
22-Jul-97,11.8,79.24
23-Jul-97,12.8,81.73
24-Jul-97,13,85.51
25-Jul-97,12.5,82
26-Jul-97,10.2,81.25
27-Jul-97,11.6,79.79
28-Jul-97,8.6,75.05
29-Jul-97,9.3,70.84
30-Jul-97,10,66.34
31-Jul-97,13.2,58.46
1-Aug-97,11.5,64.16
2-Aug-97,11.6,70.7
3-Aug-97,13.4,61.7
4-Aug-97,15.1,76.67
5-Aug-97,11.9,94.87
6-Aug-97,12.8,86.6
7-Aug-97,14.2,73.86
8-Aug-97,10.4,93.46
9-Aug-97,9.4,88.26
10-Aug-97,6.6,83.4
11-Aug-97,8.3,80.34
12-Aug-97,7.8,74.79
13-Aug-97,9.6,82.8
14-Aug-97,11,78.83
15-Aug-97,10.6,69.1
16-Aug-97,11.6,60.38
17-Aug-97,11,62.11
18-Aug-97,11.4,63.67
19-Aug-97,12.6,57.02
20-Aug-97,12.4,61.18
21-Aug-97,9.5,88.23
22-Aug-97,14.8,85.77
23-Aug-97,15.5,92.28
24-Aug-97,14.3,89.11
25-Aug-97,11.8,80.56
26-Aug-97,11.2,81.11
27-Aug-97,12.4,78.78
28-Aug-97,10.4,69.36
29-Aug-97,11,74.83
30-Aug-97,11.6,82.31
31-Aug-97,12.2,71.9
1-Sep-97,10.6,62.99
2-Sep-97,11.3,57.89
3-Sep-97,12.2,56.47
4-Sep-97,14.4,61.58
5-Sep-97,16.8,82.25
6-Sep-97,13.9,82.67
7-Sep-97,14.5,80.51
8-Sep-97,13.4,64.19
9-Sep-97,15.9,53.34
10-Sep-97,14,91.15
11-Sep-97,12.3,90.51
12-Sep-97,10.8,84.46
13-Sep-97,14.2,70.23
14-Sep-97,18.2,79.39
15-Sep-97,13.6,95.48
16-Sep-97,12.8,83.16
17-Sep-97,13.2,77.52
18-Sep-97,11.8,85.64
19-Sep-97,13.5,83.17
20-Sep-97,15,95.33
21-Sep-97,15,87.29
22-Sep-97,13.6,92.23
23-Sep-97,13.2,87.41
24-Sep-97,14.8,73.61
25-Sep-97,14.5,88.55
26-Sep-97,14.3,95.04
27-Sep-97,14,90.89
28-Sep-97,15.5,81.73
29-Sep-97,13.9,92.22
30-Sep-97,17,89.41
1-Oct-97,17.9,93.84
2-Oct-97,14,74.43
3-Oct-97,12.4,87.17
4-Oct-97,12.5,78.8
5-Oct-97,15.6,68.98
6-Oct-97,14.8,92.97
7-Oct-97,14.5,91.49
8-Oct-97,15.1,92.36
9-Oct-97,15.6,83.86
10-Oct-97,16.4,73.6
11-Oct-97,18,78.7
12-Oct-97,16.1,79.08
13-Oct-97,17.1,76.94
14-Oct-97,18.3,83.98
15-Oct-97,18.1,77.31
16-Oct-97,15.1,91.12
17-Oct-97,13.4,91.59
18-Oct-97,13,85.02
19-Oct-97,13.4,85.31
20-Oct-97,15.4,94.03
21-Oct-97,15.8,95.79
22-Oct-97,15.2,88.52
23-Oct-97,15.7,87.88
24-Oct-97,16.3,75.99
25-Oct-97,16.9,85.64
26-Oct-97,15.9,88.25
27-Oct-97,15.9,82.37
28-Oct-97,16.9,74.24
29-Oct-97,18.9,72.74
30-Oct-97,19,89.33
31-Oct-97,18.8,85.8
1-Nov-97,18.2,81.63
2-Nov-97,18.2,75.91
3-Nov-97,19.6,80.58
4-Nov-97,18,89.97
5-Nov-97,18.9,90.18
6-Nov-97,19,81.97
7-Nov-97,19.7,86.81
8-Nov-97,18.7,83.98
9-Nov-97,16.9,72.96
10-Nov-97,18.1,81.23
11-Nov-97,20.1,70.34
12-Nov-97,20.2,73.6
13-Nov-97,20.8,79.52
14-Nov-97,16.3,90.09
15-Nov-97,16.1,93.37
16-Nov-97,17.2,93.43
17-Nov-97,19,92.83
18-Nov-97,16.2,94.42
19-Nov-97,16.1,93.81
20-Nov-97,15.8,89.25
21-Nov-97,18,79.98
22-Nov-97,19,84.09
23-Nov-97,19.8,87.86
24-Nov-97,18.7,85.8
25-Nov-97,18.6,87.73
26-Nov-97,18.4,85.59
27-Nov-97,20.1,85.59
28-Nov-97,15.1,90.74
29-Nov-97,13.5,83.5
30-Nov-97,16.1,83.44
1-Dec-97,17.7,87.22
2-Dec-97,18,88.49
3-Dec-97,16.6,77.86
4-Dec-97,17.4,91.9
5-Dec-97,16.2,76.72
6-Dec-97,16.6,78.89
7-Dec-97,18.8,83.08
8-Dec-97,18.5,86.93
9-Dec-97,16.2,80.81
10-Dec-97,15.4,77.76
11-Dec-97,16,83.11
12-Dec-97,18.2,86.19
13-Dec-97,19.7,87.2
14-Dec-97,19.4,79.73
15-Dec-97,20,80.95
16-Dec-97,16.2,84.79
17-Dec-97,16.2,83.72
18-Dec-97,16.5,90.38
19-Dec-97,17.9,77
20-Dec-97,18.6,71.04
21-Dec-97,20.1,77.29
22-Dec-97,19.1,69.47
23-Dec-97,21.1,64.53
24-Dec-97,21.1,82.92
25-Dec-97,20.8,83.12
26-Dec-97,20.7,77.15
27-Dec-97,21.2,69.42
28-Dec-97,20.3,78.35
29-Dec-97,19.2,75.47
30-Dec-97,21.6,71.41
31-Dec-97,19.8,79.94
